Showing default

KUIPER-00503, 68884

Orbit data source: Space-Track

KUIPER-00503, 68884 is an American payload satellite in LEO that was launched on Tue, 28 Apr 2026 UTC launched from the Air Force Eastern Test Range (AFETR). Payload-class satellites include a variety of spacecraft equipped with specific instruments for various scientific and technological missions. These include communications satellites like Starlink; space stations such as the ISS; scientific satellites like the Hubble; Earth observation satellites from companies like Planet Labs, Umbra, and HawkEye 360; GPS; miniature CubeSats for education and research; and military/defense satellites.

Loading next visibility...
Identifier
68884, 2026-095W
Orbit
LEO
Country
Flag of USUS
Related business
None
Manufacturer
Unknown
Mission
Operational spacecraft
Bus & Motor
Unknown
Mass
Unknown
Launch date (UTC)
2026-04-28 (4 days ago)
Launch vehicle
Unknown
Launch site
Air Force Eastern Test Range (AFETR)
Object type
Payload
Rocket body
Debris
Shape & HBR
Unknown
Radar Cross Section
RCS unknown

Expand to show TLE details & history
Last TLE update: 7 hours ago

TLE from 7 hours ago
0 KUIPER-00503
1 68884U 26095W   26122.16670139 -.00002550  00000-0 -59440-4 0  9992
2 68884  51.8750 104.9344 0008459 124.3815  68.1315 15.36578295  1306
Epoch: 2026-05-02T04:00Z
TLE epoch observation values (Epoch: 2026-05-02T04:00:03.000Z)
Latitude
-10.01853°
Longitude
12.75833°
Altitude
456.69 km
Speed
7.64 km/s
True Right ascension
19h 31m 26s
True Declination
-9° 57' 26"
Sunlit
Object was in daylight at epoch
Visualization orbit readout
Latitude
Unknown
Longitude
Unknown
Altitude
Unknown
Speed
Unknown
Apparent Right ascension
Unknown
Apparent Declination
Unknown
Sunlit
N/A
Visualization observer readout
Local Sidereal Time
18:40:25
Azimuth
Unknown
Elevation
Unknown
Doppler factor
Unknown
Orbital elements
Apogee altitude
462.485 km
Perigee altitude
450.921 km
Semi-major axis
6,834.84 km
Eccentricity
0.00085
Inclination
51.875°
RAAN
104.9344°
Arg. of periapsis
124.3815°
True anomaly
68.22149°
Mean anomaly
68.1315°
Eccentric anomaly
68.17649°
Mean motion
3.84106 °/min
Orbital period
93.72 mins
BSTAR
-0.00005944
Loading maneuver chart data...
Computing Atmospheric mass density...
Loading historical data...
Loading historical data...
Loading historical data...
Loading historical data...
Loading historical data...
Loading historical data...
Loading historical data...

Documentation

Showing up to 5 results
|